Weather History for Wenatchee, WA

Change the Weather History Date:

Wednesday, September 18, 2013

  Actual Average Record
Temperature  
Mean Temperature 64 °F 57 °F  
Max Temperature 73 °F 72 °F 90 °F (1967)
Min Temperature 54 °F 41 °F 41 °F (1988)
Degree Days  
Heating Degree Days 1 9  
Month to date heating degree days 5 113  
Since 1 July heating degree days 5 224  
Cooling Degree Days 0 0  
Month to date cooling degree days 146 14  
Year to date cooling degree days 1027 247  
Growing Degree Days 14 (Base 50)    
Moisture  
Dew Point 38 °F    
Average Humidity 41    
Maximum Humidity 55    
Minimum Humidity 27    
Precipitation  
Precipitation 0.00 in 0.02 in 0.57 in (1986)
Month to date precipitation 0.62 0.35  
Year to date precipitation 6.50 10.77  
Snow  
Snow 0.00 in 0.00 in - ()
Month to date snowfall 0.0  
Since 1 July snowfall 0.0  
Since 1 September snowfall 0.0  
Snow Depth -    
Sea Level Pressure  
Sea Level Pressure 29.93 in    
Wind  
Wind Speed 13 mph (WNW)    
Max Wind Speed 24 mph    
Max Gust Speed 30 mph    
Visibility 10 miles    
Events      
T = Trace of Precipitation, MM = Missing Value Source: NWS Daily Summary

Daily Weather History Graph

Daily Weather History Graph

Search for Another Location

Airport:

Trip Planner

Search our weather history database for the weather conditions in past years. The results will help you decide how hot, cold, wet, or windy it might be!

Date:

Astronomy

Sep. 18, 2013 Rise Set
Actual Time 6:42 AM PDT 7:06 PM PDT
Civil Twilight 6:11 AM PDT 7:36 PM PDT
Nautical Twilight 5:35 AM PDT 8:12 PM PDT
Astronomical Twilight 4:57 AM PDT 8:50 PM PDT
Moon 6:30 PM PDT (9/18) 5:50 AM PDT (9/18)
Length of Visible Light 13h 24m
Length of Day
12h 23m
Waxing Gibbous, 99% of the Moon is Illuminated
Sep 18
Waxing Gibbous
Sep 19
Full
Sep 26
Last Quarter
Oct 4
New
Oct 11
First Quarter

Hourly Weather History & Observations

Time (PDT) Temp. Dew Point Humidity Pressure Visibility Wind Dir Wind Speed Gust Speed Precip Events Conditions
12:55 AM 57.0 °F 39.9 °F 53% 29.82 in 10.0 mi NW 10.4 mph - N/A   Clear
1:55 AM 59.0 °F 37.9 °F 46% 29.82 in 10.0 mi WNW 13.8 mph - N/A   Clear
2:55 AM 57.0 °F 37.9 °F 49% 29.83 in 10.0 mi WNW 13.8 mph - N/A   Clear
3:55 AM 57.0 °F 39.0 °F 51% 29.83 in 10.0 mi WNW 17.3 mph - N/A   Clear
4:55 AM 57.0 °F 39.0 °F 51% 29.84 in 10.0 mi WNW 16.1 mph - N/A   Clear
5:55 AM 55.9 °F 39.0 °F 53% 29.88 in 10.0 mi NW 12.7 mph - N/A   Clear
6:55 AM 55.0 °F 37.9 °F 53% 29.89 in 10.0 mi WNW 10.4 mph - N/A   Clear
7:55 AM 57.9 °F 39.0 °F 49% 29.91 in 10.0 mi WNW 10.4 mph - N/A   Clear
8:55 AM 60.1 °F 39.9 °F 47% 29.91 in 10.0 mi West 10.4 mph - N/A   Clear
9:55 AM 63.0 °F 39.0 °F 41% 29.94 in 10.0 mi West 11.5 mph - N/A   Clear
10:55 AM 66.0 °F 37.9 °F 36% 29.94 in 10.0 mi WNW 15.0 mph - N/A   Clear
11:55 AM 68.0 °F 37.9 °F 33% 29.94 in 10.0 mi WNW 13.8 mph 24.2 mph N/A   Clear
12:55 PM 70.0 °F 37.0 °F 30% 29.94 in 10.0 mi NW 13.8 mph - N/A   Clear
1:55 PM 71.1 °F 37.0 °F 29% 29.94 in 10.0 mi NW 20.7 mph - N/A   Clear
2:55 PM 72.0 °F 37.0 °F 28% 29.94 in 10.0 mi NW 17.3 mph - N/A   Clear
3:55 PM 72.0 °F 35.1 °F 26% 29.94 in 10.0 mi NW 19.6 mph 29.9 mph N/A   Clear
4:55 PM 70.0 °F 35.1 °F 28% 29.95 in 10.0 mi NW 19.6 mph - N/A   Clear
5:55 PM 68.0 °F 35.1 °F 30% 29.97 in 10.0 mi WNW 18.4 mph - N/A   Clear
6:55 PM 64.9 °F 35.1 °F 33% 29.98 in 10.0 mi WNW 16.1 mph 24.2 mph N/A   Clear
7:55 PM 63.0 °F 35.1 °F 35% 30.01 in 10.0 mi West 11.5 mph - N/A   Clear
8:55 PM 61.0 °F 36.0 °F 39% 30.02 in 10.0 mi WNW 11.5 mph - N/A   Clear
9:55 PM 59.0 °F 37.0 °F 44% 30.03 in 10.0 mi WNW 6.9 mph - N/A   Clear
10:55 PM 57.0 °F 39.0 °F 51% 30.04 in 10.0 mi NNW 4.6 mph - N/A   Clear
11:55 PM 55.9 °F 39.0 °F 53% 30.04 in 10.0 mi NW 6.9 mph - N/A   Clear